Regional Weather Roundup
Issued by NWS Boston, MA

Current Version | Previous Version | Text Only | Print | Product List | Glossary Off
Versions: 1 2 3 4 5 6 7 8 9 10 11 12 13 14 15 16 17 18 19 20 21 22 23 24 25 26 27 28

000
ASUS41 KBOX 170910
RWRBOX

REGIONAL WEATHER ROUNDUP
NATIONAL WEATHER SERVICE TAUNTON MA
400 AM EST WED JAN 17 2018

NOTE:  "FAIR" INDICATES FEW OR NO CLOUDS BELOW 12,000 FEET WITH NO
SIGNIFICANT WEATHER AND/OR OBSTRUCTIONS TO VISIBILITY.

MAZALL-171000-
EASTERN MASSACHUSETTS

CITY           SKY/WX    TMP DP  RH WIND       PRES   REMARKS
BOSTON         CLOUDY    32  27  81 SE6       30.35F WCI  26
BEVERLY        CLOUDY    33  28  81 CALM      30.35F
LAWRENCE       LGT SNOW  32  29  88 E3        30.37F FOG
BEDFORD        CLOUDY    31  27  85 CALM      30.34F
BLUE HILL        N/A     30  27  88 SE12      30.30F WCI  20
NORWOOD        CLOUDY    35  28  75 SE3       30.35F
MARSHFIELD     CLOUDY    34  32  93 CALM      30.35F
PLYMOUTH       CLOUDY    33  30  88 E3        30.34F
TAUNTON        CLOUDY    33  30  88 E3        30.34F
NEW BEDFORD    CLOUDY    32  32 100 E5        30.34F WCI  27
$$

MAZALL-171000-
CAPE COD AND THE ISLANDS

CITY           SKY/WX    TMP DP  RH WIND       PRES   REMARKS
FALMOUTH         N/A    N/A N/A N/A MISG        N/A
HYANNIS        LGT SNOW  32  31  96 NE3       30.34F FOG
CHATHAM        LGT SNOW  33  33 100 NE5       30.35F FOG     WCI  29
PROVINCETOWN   LGT SNOW  32  30  93 E3        30.36F FOG
NANTUCKET      LGT SNOW  33  33 100 N6        30.33F FOG     WCI  28
MARTHAS VNYRD  LGT SNOW N/A N/A N/A E6        30.34S
$$

MAZALL-171000-
CENTRAL AND WESTERN MASSACHUSETTS

CITY           SKY/WX    TMP DP  RH WIND       PRES   REMARKS
WORCESTER      SNOW      28  26  92 E5        30.28F VSB 1/2 WCI  23
FITCHBURG      LGT SNOW  31  30  96 CALM      30.34F FOG
ORANGE         LGT SNOW  28  28 100 CALM      30.32F FOG
SPRINGFIELD    LGT SNOW  29  28  96 NE3       30.30  FOG
WESTFIELD      LGT SNOW  28  28 100 N5        30.31F VSB 1   WCI  23
NORTH ADAMS    LGT SNOW  28  26  92 CALM      30.30F VSB 1
PITTSFIELD     LGT SNOW  28  25  88 CALM      30.25F FOG
$$

RIZALL-171000-
RHODE ISLAND

CITY           SKY/WX    TMP DP  RH WIND       PRES   REMARKS
PROVIDENCE     CLOUDY    34  32  92 E6        30.34F WCI  29
NEWPORT        FLURRIES  33  32  96 E8        30.32F WCI  26
BLOCK ISLAND   LGT RAIN  35  34  96 E13       30.31F WCI  26
SMITHFIELD     CLOUDY   N/A N/A N/A SE3       30.32F
WESTERLY       LGT SNOW  36  35  96 E9        30.32F FOG     WCI  29
$$

CTZALL-171000-
CONNECTICUT

CITY           SKY/WX    TMP DP  RH WIND       PRES   REMARKS
BRADLEY INTL   LGT SNOW  30  29  96 N5        30.31F FOG     WCI  25
HARTFORD       LGT SNOW  31  29  92 N3        30.31F VSB 1
BRIDGEPORT     LGT RAIN  37  35  92 NE9       30.28F WCI  30
DANBURY        FRZ RAIN  33  30  88 VRB3      30.28F FOG
GROTON         CLOUDY    37  34  89 E8        30.31F WCI  31
NEW HAVEN      LGT RAIN  37  34  89 NE5       30.28F FOG
CHESTER        MIX PCPN  36  34  93 SE5       30.28F WCI  32
MERIDEN        LGT SNOW  30  29  96 NW3       30.30F FOG
WILLIMANTIC    MIX PCPN  34  32  92 CALM      30.32F FOG
OXFORD         MIX PCPN  32  30  93 E7        30.26F FOG     WCI  26
$$

MEZ002-015-021-024-NHZ003-005-008-011-012-014-VTZ005-008-171000-
NORTHERN NEW ENGLAND

CITY           SKY/WX    TMP DP  RH WIND       PRES   REMARKS
PORTLAND ME    LGT SNOW  26  25  96 NE3       30.39F FOG
BANGOR ME      LGT SNOW  20  18  92 SE3       30.41S FOG
CONCORD NH     LGT SNOW  26  23  88 NW3       30.34F FOG
MANCHESTER NH  LGT SNOW  30  29  96 CALM      30.34F VSB 1
NASHUA NH      LGT SNOW  29  29 100 CALM      30.35F FOG
PORTSMOUTH NH  LGT SNOW  30  29  97 CALM      30.35F FOG
JAFFREY NH     LGT SNOW  28  27  96 N3        30.29F VSB 1
KEENE NH       LGT SNOW  27  25  93 NE3       30.32F FOG
BURLINGTON VT  CLOUDY    20  17  88 NW6       30.35S FOG     WCI  12
MT. WASHINGTON SNOW       9   9 100 W33         N/A  VSB 0   WCI -15
$$

NYZ052-076-171000-
EASTERN NEW YORK

CITY           SKY/WX    TMP DP  RH WIND       PRES   REMARKS
ALBANY         LGT SNOW  26  23  88 NW5       30.34F FOG     WCI  20
NEW YORK CITY  LGT RAIN  35  32  88 NE9       30.26F WCI  28
$$

ANZALL-171000-
MARINE OBSERVATIONS

STATION/POSITION TIME  TEMP    WIND        PRES    VSBY  WAVE
                       AIR SEA DIR/SP/G                  HT/PER
                 (UTC) (F)     (DEG/KT/KT) (MB)    (MI)  (FT/S)
BOSTON BUOY      0850   36 41  150/ 12/ 14 1027.7F         4/ 9
BUZZARDS BAY     0800   33     120/ 16/ 17 1027.8F
NANTUCKET SOUND  0850   33 38   40/  8/  8 1027.5F         1/ 5
MASS BAY-STELLWA 0804   36 40              1027.8F         5/11
ISLE OF SHOALS   0900   33     350/  2/  2 1028.2F
S OF BLOCK IS    0843      42                N/A           4/10
$$

......................KEY.........................
  SKY/WX - SKY CONDITION/PRESENT WEATHER
  TMP    - TEMPERATURE IN FAHRENHEIT
  DWPT   - DEWPOINT IN FAHRENHEIT
  RH     - RELATIVE HUMIDITY IN PERCENT
  WIND   - DIRECTION AND SPEED IN MPH
  PRES   - MEAN SEA LEVEL PRESSURE IN INCHES OF HG
  WCI    - WIND CHILL INDEX
  VSB    - VISIBILITY IN MILES
  HX     - HEAT INDEX
  TC     - TEMPERATURE IN CELSIUS
  VRB    - VARIABLE WIND DIRECTION
  N/A    - NOT AVAILABLE




USA.gov is the U.S. government's official web portal to all federal, state and local government web resources and services.